Starlink 31875

operational
NORAD ID: 59674 Int'l Des: 2024-084 Owner: SPXS Country: US Constellation: starlink
LEOCIRCULAR

About Starlink 31875

Description loading...

Live Position

Loading 3D Globe...

Upcoming Passes

Altitude History

Altitude vs Time

uPlot chart will show altitude changes over time

Two-Line Element Set

1 59674U 24084W 25305.59233210 .00000301 00000-0 20483-4 0 9994
2 59674 43.0064 41.6464 0002484 262.4642 97.5928 15.27581203 84825
Epoch: Nov 1, 2025 • Age: 16 hours

Current Status

Altitude 482.8 km
Velocity 7.63 km/s
Sub-Earth Point 1.51°N, 90.98°W
Launch Date May 6, 2024
Age 1.4 years
Type internet

Technical Details

Classification Payload
Mass 730.00 kg
Dry Mass 700.00 kg
Total Mass 730.00 kg
Length 0.30 m
Diameter 4.10 m
Span 29.00 m
Shape Box + pan
Manufacturer SPXS
Bus Type Starlink V2M
Phase Status In Orbit
Owner/State SPXS/US

Large Constellations

Loading constellations...